Regional Weather Roundup
Issued by NWS Little Rock, AR

Home | Current Version | Previous Version | Graphics & Text | Print | Product List | Glossary On
Versions: 1 2 3 4 5 6 7 8 9 10 11 12 13 14 15 16 17 18 19 20 21 22 23 24 25 26 27 28 29 30 31 32 33 34 35 36 37 38 39 40 41 42 43 44 45 46 47 48 49 50
986
ASUS44 KLZK 211505
RWRLZK

WEATHER ROUNDUP FOR ARKANSAS
NATIONAL WEATHER SERVICE LITTLE ROCK AR
1000 AM CDT SAT OCT 21 2017

NOTE: "FAIR" INDICATES FEW OR NO CLOUDS BELOW 12,000 FEET WITH NO
SIGNIFICANT WEATHER AND/OR OBSTRUCTIONS TO VISIBILITY.

ARZ001-003-010-029-211600-
NORTHWEST ARKANSAS

CITY           SKY/WX    TMP DP  RH WIND       PRES   REMARKS
FAYETTEVILLE   PTSUNNY   70  64  81 S13       30.01R
FORT SMITH     CLOUDY    70  63  78 E6        30.00R
HARRISON       CLOUDY    69  63  81 S8G22     30.04R
BENTONVILLE    CLOUDY    70  62  76 S12G18    30.01S
ROGERS         CLOUDY    73  63  70 S16       30.00S
SILOAM SPGS    CLOUDY    70  62  76 S20G26    29.99S
HIGHFILL       PTSUNNY   70  62  76 S16       29.99S
SPRINGDALE     PTSUNNY   72  63  73 S18G25    30.02R
$$

ARZ004-005-016-211600-
NORTH CENTRAL ARKANSAS

CITY           SKY/WX    TMP DP  RH WIND       PRES   REMARKS
BATESVILLE     CLOUDY    71  62  73 S7        30.09R
FLIPPIN        CLOUDY    69  63  81 S8        30.05R
MTN HOME       CLOUDY    68  64  87 SW8       30.05R
$$

ARZ040-041-211600-
WEST CENTRAL ARKANSAS

CITY           SKY/WX    TMP DP  RH WIND       PRES   REMARKS
MENA           NOT AVBL
$$

ARZ009-017-025-026-028-211600-
NORTHEAST ARKANSAS

CITY           SKY/WX    TMP DP  RH WIND       PRES   REMARKS
JONESBORO      PTSUNNY   71  57  61 S14       30.11S
NEWPORT        PTSUNNY   71  61  70 S16       30.09S
WALNUT RIDGE   CLOUDY    70  58  65 S14       30.10S
BLYTHEVILLE    CLOUDY    69  54  58 S12       30.13F
$$

ARZ022-023-033-042-044-211600-
CENTRAL ARKANSAS

CITY           SKY/WX    TMP DP  RH WIND       PRES   REMARKS
LITTLE ROCK    CLOUDY    72  66  81 S12G18    30.05S
N LITTLE ROCK    N/A     70  65  83 S8G16     30.07S
JACKSONVILLE   PTSUNNY   72  65  76 S7        30.05S
SEARCY         MOSUNNY   73  66  78 S13       30.07F
HOT SPRINGS    CLOUDY    69  68  96 S8G18     30.04R
RUSSELLVILLE   CLOUDY    68  64  87 E5        30.04R
CLINTON        CLOUDY    66  63  88 CALM      30.07R FOG
$$

ARZ036-211600-
EAST ARKANSAS

CITY           SKY/WX    TMP DP  RH WIND       PRES   REMARKS
WEST MEMPHIS   LGT RAIN  67  57  70 SE12      30.11F
$$

ARZ050-053-066-070-073-211600-
SOUTHWEST ARKANSAS

CITY           SKY/WX    TMP DP  RH WIND       PRES   REMARKS
ARKADELPHIA    CLOUDY    69  66  90 VRB6      30.05R
CAMDEN         CLOUDY    72  64  78 SE9       30.04F
TEXARKANA      CLOUDY    73  69  87 S10       30.01R
EL DORADO      CLOUDY    69  69 100 SE9       30.06R FOG
DE QUEEN       CLOUDY    69  69 100 VRB3      30.00R FOG
$$

ARZ056-057-069-211600-
SOUTHEAST ARKANSAS

CITY           SKY/WX    TMP DP  RH WIND       PRES   REMARKS
PINE BLUFF     MOSUNNY   71  65  81 SE15      30.07F
STUTTGART      CLOUDY    72  63  73 SE15      30.08F
MONTICELLO     CLOUDY    73  65  75 SE9G17    30.08F

$$






USA.gov is the U.S. government's official web portal to all federal, state and local government web resources and services.